Time,TemperatureF,DewpointF,PressureIn,WindDirection,WindDirectionDegrees,WindSpeedMPH,WindSpeedGustMPH,Humidity,HourlyPrecipIn,Conditions,Clouds,dailyrainin,SolarRadiationWatts/m^2,SoftwareType,DateUTC
2013-07-24 00:07:00,73.7,63.0,29.87,NE,53,3.0,8.0,70,0.00,,,0.00,0,weatherlink.com 1.10,2013-07-24 05:07:00,
2013-07-24 00:22:00,73.3,63.0,29.89,North,5,4.0,10.0,70,0.00,,,0.00,0,weatherlink.com 1.10,2013-07-24 05:22:00,
2013-07-24 00:37:00,72.6,62.0,29.89,NE,34,3.0,6.0,70,0.00,,,0.00,0,weatherlink.com 1.10,2013-07-24 05:37:00,
2013-07-24 00:52:00,72.1,62.0,29.89,East,85,0.0,5.0,70,0.00,,,0.00,0,weatherlink.com 1.10,2013-07-24 05:52:00,
2013-07-24 01:07:00,71.6,62.0,29.88,NNE,24,3.0,5.0,71,0.00,,,0.00,0,weatherlink.com 1.10,2013-07-24 06:07:00,
2013-07-24 01:22:00,71.2,61.0,29.88,NE,36,0.0,6.0,71,0.00,,,0.00,0,weatherlink.com 1.10,2013-07-24 06:22:00,
2013-07-24 01:37:00,70.7,61.0,29.89,ENE,68,2.0,5.0,72,0.00,,,0.00,0,weatherlink.com 1.10,2013-07-24 06:37:00,
2013-07-24 01:52:00,70.3,61.0,29.90,NE,55,0.0,5.0,72,0.00,,,0.00,0,weatherlink.com 1.10,2013-07-24 06:52:00,
2013-07-24 02:07:00,69.9,61.0,29.90,NE,35,1.0,5.0,73,0.00,,,0.00,0,weatherlink.com 1.10,2013-07-24 07:07:00,
2013-07-24 02:22:00,69.6,61.0,29.91,NE,34,2.0,6.0,73,0.00,,,0.00,0,weatherlink.com 1.10,2013-07-24 07:22:00,
2013-07-24 02:37:00,69.4,61.0,29.91,NNE,20,0.0,5.0,74,0.00,,,0.00,0,weatherlink.com 1.10,2013-07-24 07:37:00,
2013-07-24 02:52:00,69.0,61.0,29.91,NE,39,2.0,6.0,75,0.00,,,0.00,0,weatherlink.com 1.10,2013-07-24 07:52:00,
2013-07-24 03:07:00,68.7,61.0,29.92,ENE,74,2.0,4.0,75,0.00,,,0.00,0,weatherlink.com 1.10,2013-07-24 08:07:00,
2013-07-24 03:23:00,68.5,61.0,29.92,ENE,67,0.0,4.0,76,0.00,,,0.00,0,weatherlink.com 1.10,2013-07-24 08:23:00,
2013-07-24 03:38:00,68.2,61.0,29.93,ENE,67,2.0,3.0,77,0.00,,,0.00,0,weatherlink.com 1.10,2013-07-24 08:38:00,
2013-07-24 03:53:00,68.3,61.0,29.94,NE,49,0.0,3.0,77,0.00,,,0.00,0,weatherlink.com 1.10,2013-07-24 08:53:00,
2013-07-24 04:08:00,67.8,61.0,29.93,NE,49,1.0,2.0,79,0.00,,,0.00,0,weatherlink.com 1.10,2013-07-24 09:08:00,
2013-07-24 04:23:00,67.4,61.0,29.93,NE,47,1.0,3.0,79,0.00,,,0.00,0,weatherlink.com 1.10,2013-07-24 09:23:00,
2013-07-24 04:38:00,66.9,61.0,29.93,NE,47,0.0,2.0,80,0.00,,,0.00,0,weatherlink.com 1.10,2013-07-24 09:38:00,
2013-07-24 04:53:00,66.6,60.0,29.93,NE,47,0.0,2.0,80,0.00,,,0.00,0,weatherlink.com 1.10,2013-07-24 09:53:00,
2013-07-24 05:08:00,66.5,60.0,29.94,NE,47,0.0,3.0,80,0.00,,,0.00,0,weatherlink.com 1.10,2013-07-24 10:08:00,
2013-07-24 05:23:00,66.5,60.0,29.94,NE,47,0.0,2.0,79,0.00,,,0.00,0,weatherlink.com 1.10,2013-07-24 10:23:00,
2013-07-24 05:38:00,66.7,60.0,29.95,NE,47,0.0,2.0,80,0.00,,,0.00,0,weatherlink.com 1.10,2013-07-24 10:38:00,
2013-07-24 05:53:00,66.7,60.0,29.95,NE,44,1.0,2.0,80,0.00,,,0.00,0,weatherlink.com 1.10,2013-07-24 10:53:00,
2013-07-24 06:08:00,66.8,60.0,29.95,NNE,30,1.0,4.0,79,0.00,,,0.00,0,weatherlink.com 1.10,2013-07-24 11:08:00,
2013-07-24 06:23:00,66.6,60.0,29.95,NNE,31,0.0,4.0,78,0.00,,,0.00,9,weatherlink.com 1.10,2013-07-24 11:23:00,
2013-07-24 06:38:00,66.1,59.0,29.96,NNE,31,1.0,3.0,79,0.00,,,0.00,21,weatherlink.com 1.10,2013-07-24 11:38:00,
2013-07-24 06:53:00,66.1,60.0,29.96,NNE,30,0.0,3.0,80,0.00,,,0.00,33,weatherlink.com 1.10,2013-07-24 11:53:00,
2013-07-24 07:08:00,66.2,60.0,29.95,NNE,28,0.0,4.0,80,0.00,,,0.00,58,weatherlink.com 1.10,2013-07-24 12:08:00,
2013-07-24 07:23:00,67.0,61.0,29.96,NNE,28,3.0,3.0,80,0.00,,,0.00,97,weatherlink.com 1.10,2013-07-24 12:23:00,
2013-07-24 07:38:00,67.8,61.0,29.96,NNE,27,3.0,5.0,78,0.00,,,0.00,146,weatherlink.com 1.10,2013-07-24 12:38:00,
2013-07-24 07:53:00,68.7,61.0,29.96,NNE,30,1.0,3.0,77,0.00,,,0.00,195,weatherlink.com 1.10,2013-07-24 12:53:00,
2013-07-24 08:08:00,69.7,61.0,29.96,NNE,28,0.0,4.0,75,0.00,,,0.00,237,weatherlink.com 1.10,2013-07-24 13:08:00,
2013-07-24 08:23:00,71.1,62.0,29.97,NE,42,0.0,4.0,73,0.00,,,0.00,281,weatherlink.com 1.10,2013-07-24 13:23:00,
2013-07-24 08:38:00,71.9,62.0,29.97,NE,37,5.0,5.0,71,0.00,,,0.00,327,weatherlink.com 1.10,2013-07-24 13:38:00,
2013-07-24 08:53:00,71.9,62.0,29.97,NE,53,0.0,5.0,71,0.00,,,0.00,367,weatherlink.com 1.10,2013-07-24 13:53:00,
2013-07-24 09:09:00,74.0,62.0,29.97,NE,53,0.0,4.0,67,0.00,,,0.00,410,weatherlink.com 1.10,2013-07-24 14:09:00,
2013-07-24 09:24:00,74.0,62.0,29.97,NE,53,0.0,4.0,67,0.00,,,0.00,454,weatherlink.com 1.10,2013-07-24 14:24:00,
2013-07-24 09:39:00,73.9,62.0,29.98,ESE,114,0.0,4.0,67,0.00,,,0.00,497,weatherlink.com 1.10,2013-07-24 14:39:00,
2013-07-24 09:54:00,74.2,63.0,29.98,ENE,76,0.0,8.0,67,0.00,,,0.00,538,weatherlink.com 1.10,2013-07-24 14:54:00,
2013-07-24 10:09:00,74.8,63.0,29.98,ENE,74,0.0,5.0,66,0.00,,,0.00,578,weatherlink.com 1.10,2013-07-24 15:09:00,
2013-07-24 10:24:00,77.0,64.0,29.99,ENE,73,1.0,4.0,64,0.00,,,0.00,619,weatherlink.com 1.10,2013-07-24 15:24:00,
2013-07-24 10:39:00,76.8,64.0,29.99,ENE,71,2.0,5.0,65,0.00,,,0.00,654,weatherlink.com 1.10,2013-07-24 15:39:00,
2013-07-24 10:54:00,77.7,63.0,29.99,NE,47,1.0,3.0,60,0.00,,,0.00,693,weatherlink.com 1.10,2013-07-24 15:54:00,
2013-07-24 11:09:00,79.1,64.0,30.00,NE,47,0.0,5.0,61,0.00,,,0.00,726,weatherlink.com 1.10,2013-07-24 16:09:00,
2013-07-24 11:24:00,79.8,64.0,30.00,NNE,30,3.0,8.0,58,0.00,,,0.00,754,weatherlink.com 1.10,2013-07-24 16:24:00,
2013-07-24 11:39:00,80.0,62.0,30.00,NNE,17,2.0,6.0,54,0.00,,,0.00,775,weatherlink.com 1.10,2013-07-24 16:39:00,
2013-07-24 11:54:00,80.9,61.0,30.00,North,355,2.0,9.0,51,0.00,,,0.00,803,weatherlink.com 1.10,2013-07-24 16:54:00,
2013-07-24 12:13:00,81.2,61.0,30.00,NNE,30,0.0,10.0,50,0.00,,,0.00,833,weatherlink.com 1.10,2013-07-24 17:13:00,
2013-07-24 12:28:00,81.9,62.0,30.00,North,5,4.0,7.0,51,0.00,,,0.00,844,weatherlink.com 1.10,2013-07-24 17:28:00,
2013-07-24 12:44:00,82.1,61.0,30.00,NE,46,1.0,8.0,49,0.00,,,0.00,861,weatherlink.com 1.10,2013-07-24 17:44:00,
2013-07-24 12:59:00,83.1,61.0,30.00,NE,39,1.0,7.0,48,0.00,,,0.00,872,weatherlink.com 1.10,2013-07-24 17:59:00,
2013-07-24 13:14:00,82.9,61.0,29.99,NNE,20,2.0,7.0,48,0.00,,,0.00,879,weatherlink.com 1.10,2013-07-24 18:14:00,
2013-07-24 13:29:00,83.4,60.0,29.99,WNW,295,4.0,8.0,46,0.00,,,0.00,879,weatherlink.com 1.10,2013-07-24 18:29:00,
2013-07-24 13:44:00,83.3,61.0,29.98,East,86,6.0,7.0,47,0.00,,,0.00,884,weatherlink.com 1.10,2013-07-24 18:44:00,
2013-07-24 13:59:00,83.3,60.0,29.98,NNE,15,2.0,11.0,46,0.00,,,0.00,881,weatherlink.com 1.10,2013-07-24 18:59:00,
2013-07-24 14:14:00,84.5,61.0,29.98,NNE,26,0.0,6.0,45,0.00,,,0.00,874,weatherlink.com 1.10,2013-07-24 19:14:00,
2013-07-24 14:29:00,84.7,60.0,29.97,NE,51,2.0,9.0,43,0.00,,,0.00,861,weatherlink.com 1.10,2013-07-24 19:29:00,
2013-07-24 14:44:00,85.3,59.0,29.97,ENE,61,2.0,6.0,41,0.00,,,0.00,853,weatherlink.com 1.10,2013-07-24 19:44:00,
2013-07-24 15:00:00,85.1,60.0,29.96,ENE,60,3.0,10.0,43,0.00,,,0.00,835,weatherlink.com 1.10,2013-07-24 20:00:00,
2013-07-24 15:14:00,85.6,61.0,29.96,ENE,58,2.0,8.0,43,0.00,,,0.00,819,weatherlink.com 1.10,2013-07-24 20:14:00,
2013-07-24 15:29:00,85.6,61.0,29.96,NE,46,1.0,8.0,44,0.00,,,0.00,798,weatherlink.com 1.10,2013-07-24 20:29:00,
2013-07-24 15:44:00,86.3,61.0,29.96,NNE,23,4.0,8.0,43,0.00,,,0.00,770,weatherlink.com 1.10,2013-07-24 20:44:00,
2013-07-24 15:59:00,85.6,62.0,29.96,ENE,72,0.0,6.0,45,0.00,,,0.00,744,weatherlink.com 1.10,2013-07-24 20:59:00,
2013-07-24 16:14:00,85.2,62.0,29.95,ENE,59,5.0,8.0,45,0.00,,,0.00,715,weatherlink.com 1.10,2013-07-24 21:14:00,
2013-07-24 16:29:00,86.8,62.0,29.95,NNE,31,1.0,5.0,43,0.00,,,0.00,684,weatherlink.com 1.10,2013-07-24 21:29:00,
2013-07-24 16:44:00,85.1,63.0,29.95,NE,55,2.0,8.0,47,0.00,,,0.00,647,weatherlink.com 1.10,2013-07-24 21:44:00,
2013-07-24 16:59:00,86.0,62.0,29.95,East,84,0.0,7.0,45,0.00,,,0.00,617,weatherlink.com 1.10,2013-07-24 21:59:00,
2013-07-24 17:14:00,85.7,62.0,29.94,NE,49,0.0,6.0,45,0.00,,,0.00,573,weatherlink.com 1.10,2013-07-24 22:14:00,
2013-07-24 17:29:00,86.0,62.0,29.94,North,360,0.0,8.0,44,0.00,,,0.00,536,weatherlink.com 1.10,2013-07-24 22:29:00,
2013-07-24 17:44:00,85.5,62.0,29.94,NE,55,1.0,5.0,45,0.00,,,0.00,496,weatherlink.com 1.10,2013-07-24 22:44:00,
2013-07-24 17:59:00,84.7,62.0,29.94,NE,34,2.0,9.0,46,0.00,,,0.00,448,weatherlink.com 1.10,2013-07-24 22:59:00,
2013-07-24 18:14:00,84.7,61.0,29.94,NE,42,0.0,8.0,45,0.00,,,0.00,406,weatherlink.com 1.10,2013-07-24 23:14:00,
2013-07-24 18:29:00,84.6,61.0,29.94,ENE,69,3.0,7.0,45,0.00,,,0.00,364,weatherlink.com 1.10,2013-07-24 23:29:00,
2013-07-24 18:44:00,84.7,62.0,29.93,NE,34,0.0,6.0,46,0.00,,,0.00,323,weatherlink.com 1.10,2013-07-24 23:44:00,
2013-07-24 18:59:00,84.0,60.0,29.94,NE,49,5.0,6.0,45,0.00,,,0.00,141,weatherlink.com 1.10,2013-07-24 23:59:00,
2013-07-24 19:14:00,82.4,60.0,29.94,NE,54,1.0,6.0,47,0.00,,,0.00,121,weatherlink.com 1.10,2013-07-25 00:14:00,
2013-07-24 19:29:00,81.7,61.0,29.94,NE,44,0.0,4.0,49,0.00,,,0.00,76,weatherlink.com 1.10,2013-07-25 00:29:00,
2013-07-24 19:44:00,81.1,61.0,29.93,NE,44,0.0,3.0,51,0.00,,,0.00,79,weatherlink.com 1.10,2013-07-25 00:44:00,
2013-07-24 19:59:00,80.5,61.0,29.94,NE,44,0.0,3.0,52,0.00,,,0.00,44,weatherlink.com 1.10,2013-07-25 00:59:00,
2013-07-24 20:14:00,79.6,61.0,29.95,NE,44,0.0,1.0,54,0.00,,,0.00,23,weatherlink.com 1.10,2013-07-25 01:14:00,
2013-07-24 20:29:00,78.9,61.0,29.95,NE,44,0.0,1.0,55,0.00,,,0.00,5,weatherlink.com 1.10,2013-07-25 01:29:00,
2013-07-24 20:44:00,78.4,61.0,29.95,NE,44,0.0,2.0,56,0.00,,,0.00,0,weatherlink.com 1.10,2013-07-25 01:44:00,
2013-07-24 20:59:00,77.7,61.0,29.95,NE,44,0.0,1.0,57,0.00,,,0.00,0,weatherlink.com 1.10,2013-07-25 01:59:00,
2013-07-24 21:14:00,77.1,62.0,29.95,NE,44,0.0,2.0,60,0.00,,,0.00,0,weatherlink.com 1.10,2013-07-25 02:14:00,
2013-07-24 21:29:00,76.5,62.0,29.95,NE,44,0.0,3.0,61,0.00,,,0.00,0,weatherlink.com 1.10,2013-07-25 02:29:00,
2013-07-24 21:44:00,76.2,63.0,29.95,NE,44,0.0,1.0,63,0.00,,,0.00,0,weatherlink.com 1.10,2013-07-25 02:44:00,
2013-07-24 21:59:00,75.4,62.0,29.96,NE,44,0.0,0.0,63,0.00,,,0.00,0,weatherlink.com 1.10,2013-07-25 02:59:00,
2013-07-24 22:14:00,75.4,62.0,29.97,NE,44,0.0,3.0,64,0.00,,,0.00,0,weatherlink.com 1.10,2013-07-25 03:14:00,
2013-07-24 22:29:00,75.1,63.0,29.97,NE,44,0.0,2.0,66,0.00,,,0.00,0,weatherlink.com 1.10,2013-07-25 03:29:00,
2013-07-24 22:45:00,74.8,63.0,29.97,NE,44,0.0,1.0,66,0.00,,,0.00,0,weatherlink.com 1.10,2013-07-25 03:45:00,
2013-07-24 23:15:00,73.9,63.0,29.98,NE,44,0.0,1.0,69,0.00,,,0.00,0,weatherlink.com 1.10,2013-07-25 04:15:00,
2013-07-24 23:30:00,73.1,63.0,30.00,NE,44,0.0,0.0,70,0.00,,,0.00,0,weatherlink.com 1.10,2013-07-25 04:30:00,
2013-07-24 23:45:00,72.4,63.0,30.00,NE,44,0.0,0.0,72,0.00,,,0.00,0,weatherlink.com 1.10,2013-07-25 04:45:00,